Content
SEND FEEDBACK

Daily
Averages
Monthly
Summary
United States of America

FAYETTEVILLE, TENNESSEE


Home > North America > United States > Tennessee
Elevation: 700 feet     Latitude: 35 10N     Longitude: 086 33W

WEATHER
 
SELECT A DAY
Number of Records: 309,684;   Date Range: 4/22/02 - 12/21/14
 
SHARE

PRINT THIS DATA

[ ← Previous Day ]
WEATHER ALMANAC - APRIL 7, 2014
[ Next Day → ]
[ °C ]   °F
Weather ElementAverageHighLow
Temperature53.9 °F62.6 °F (1:55 pm)46.4 °F (10:35 pm)
Dewpoint47.3 °F57.2 °F (1:55 pm)41 °F (7:15 pm)
Humidity79.1 %94 % (4:55 am)62 % (7:15 pm)
Barometer29.70 in29.86 in (10:35 pm)29.59 in (9:55 am)
Wind Speed9.4 mph19.6 mph (2:55 pm)
Wind Gust26.5 mph (2:15 pm)
Weather ElementAverage
Visibility8.8 mi
Wind DirectionSSE (156.6 °)

Weather ElementTotal
Precipitation1.07 in
Heating Degree Days10.5 (Base 65)
Growing Degree Days4.5 (Base 50)
Averaged from 70 records on April 7, 2014
WEATHER CONDITIONS BREAKOUT
WIND DIRECTION BREAKOUT
WEATHER BY HOUR - APRIL 7, 2014
[ °C ]   °F
Local TimeTemperatureDewpointHumidityBarometerVisibilityWind DirectionWind SpeedGust SpeedPrecipitationEventsConditions
12:35 AM51.8 °F48.2 °F88 %29.80 in5.0 miCalm0.10 inRainRain
12:55 AM51.8 °F48.2 °F88 %29.76 in7.0 miCalm0.12 inRainRain
1:15 AM51.8 °F48.2 °F88 %29.74 in10.0 miSE (140°)9.2 mph16.1 mph0.01 inRainLight Rain
1:35 AM51.8 °F48.2 °F88 %29.74 in10.0 miESE (120°)9.2 mph18.4 mph0.02 inRainRain
1:55 AM51.8 °F46.4 °F82 %29.72 in7.0 miSE (130°)9.2 mph17.3 mph0.04 inRainRain
2:15 AM51.8 °F46.4 °F82 %29.75 in5.0 miSE (140°)6.9 mph18.4 mph0.04 inRainRain
2:35 AM51.8 °F46.4 °F82 %29.73 in5.0 miSE (140°)13.8 mph20.7 mph0.09 inRainHeavy Rain
2:55 AM51.8 °F46.4 °F82 %29.70 in7.0 miSE (140°)13.8 mph21.9 mph0.12 inRainRain
3:15 AM51.8 °F48.2 °F88 %29.72 in5.0 miSE (140°)12.7 mph21.9 mph0.03 inRainRain
3:35 AM51.8 °F48.2 °F88 %29.73 in7.0 miSSE (150°)13.8 mph23.0 mph0.07 inRainRain
3:55 AM51.8 °F48.2 °F88 %29.71 in4.0 miSE (140°)15.0 mph24.2 mph0.11 inRainRain
4:15 AM51.8 °F48.2 °F88 %29.71 in4.0 miSE (140°)10.4 mph25.3 mph0.07 inRainRain
4:35 AM51.8 °F48.2 °F88 %29.69 in5.0 miSE (140°)11.5 mph17.3 mph0.12 inRainRain
4:55 AM51.8 °F50.0 °F94 %29.65 in10.0 miSSE (150°)12.7 mph23.0 mph0.13 inRainLight Rain
5:15 AM53.6 °F50.0 °F88 %29.66 in10.0 miSE (140°)12.7 mph23.0 mphMostly Cloudy
5:35 AM53.6 °F50.0 °F88 %29.67 in10.0 miSE (140°)12.7 mph17.3 mphScattered Clouds
5:55 AM53.6 °F50.0 °F88 %29.65 in10.0 miSE (140°)12.7 mph18.4 mphMostly Cloudy
6:15 AM53.6 °F50.0 °F88 %29.66 in10.0 miSSE (150°)15.0 mph20.7 mphOvercast
6:35 AM53.6 °F50.0 °F88 %29.68 in10.0 miSSE (150°)13.8 mph21.9 mphOvercast
6:55 AM53.6 °F50.0 °F88 %29.66 in10.0 miSE (140°)5.8 mphMostly Cloudy
7:15 AM53.6 °F50.0 °F88 %29.65 in10.0 miSE (140°)9.2 mph19.6 mphScattered Clouds
7:35 AM53.6 °F50.0 °F88 %29.65 in10.0 miSE (140°)11.5 mph19.6 mphClear
7:55 AM53.6 °F50.0 °F88 %29.64 in10.0 miCalmClear
8:15 AM53.6 °F50.0 °F88 %29.64 in10.0 miSE (140°)11.5 mph17.3 mphScattered Clouds
8:35 AM55.4 °F50.0 °F82 %29.64 in10.0 miSE (140°)10.4 mph20.7 mphScattered Clouds
8:55 AM55.4 °F50.0 °F82 %29.63 in10.0 miSE (130°)6.9 mph16.1 mphOvercast
9:15 AM55.4 °F50.0 °F82 %29.61 in10.0 miSE (140°)4.6 mph16.1 mphOvercast
9:35 AM55.4 °F50.0 °F82 %29.60 in10.0 miSSE (150°)12.7 mph17.3 mphOvercast
9:55 AM55.4 °F50.0 °F82 %29.59 in10.0 miSE (130°)4.6 mph18.4 mphOvercast
10:15 AM59.0 °F51.8 °F77 %29.60 in10.0 miSSE (160°)12.7 mph19.6 mphOvercast
10:35 AM59.0 °F50.0 °F72 %29.61 in10.0 miSouth (170°)12.7 mph19.6 mphOvercast
11:15 AM59.0 °F51.8 °F77 %29.61 in10.0 miSouth (170°)10.4 mph19.6 mphRainLight Rain
11:35 AM57.2 °F51.8 °F82 %29.61 in7.0 miSouth (170°)9.2 mphRainRain
11:55 AM57.2 °F51.8 °F82 %29.62 in3.0 miSSE (160°)3.5 mph16.1 mphRainLight Rain
12:15 PM57.2 °F53.6 °F88 %29.62 in5.0 miSSE (160°)4.6 mphRainLight Rain
12:35 PM57.2 °F53.6 °F88 %29.62 in3.0 miCalmDrizzle
12:55 PM59.0 °F55.4 °F88 %29.62 in3.0 miSouth (190°)13.8 mphOvercast
1:15 PM60.8 °F55.4 °F82 %29.62 in5.0 miSouth (190°)13.8 mphOvercast
1:35 PM60.8 °F55.4 °F82 %29.62 in7.0 miCalmLight Drizzle
1:55 PM62.6 °F57.2 °F82 %29.61 in10.0 miSSW (200°)10.4 mph18.4 mphOvercast
2:15 PM62.6 °F53.6 °F72 %29.61 in10.0 miWSW (250°)17.3 mph26.5 mphOvercast
2:35 PM62.6 °F53.6 °F72 %29.61 in10.0 miWSW (250°)16.1 mph24.2 mphMostly Cloudy
2:55 PM60.8 °F50.0 °F68 %29.63 in10.0 miWest (270°)19.6 mph26.5 mphOvercast
3:15 PM57.2 °F50.0 °F77 %29.64 in10.0 miWest (260°)16.1 mph24.2 mphOvercast
3:35 PM55.4 °F46.4 °F72 %29.65 in10.0 miWest (260°)17.3 mph26.5 mphOvercast
3:55 PM55.4 °F46.4 °F72 %29.65 in10.0 miWest (260°)15.0 mph24.2 mphOvercast
4:15 PM55.4 °F44.6 °F67 %29.66 in10.0 miWSW (240°)15.0 mph20.7 mphOvercast
4:35 PM55.4 °F44.6 °F67 %29.67 in10.0 miWSW (250°)13.8 mph24.2 mphOvercast
4:55 PM55.4 °F44.6 °F67 %29.68 in10.0 miWSW (240°)16.1 mph21.9 mphOvercast
5:15 PM55.4 °F42.8 °F63 %29.69 in10.0 miWSW (250°)10.4 mphOvercast
5:35 PM55.4 °F42.8 °F63 %29.70 in10.0 miCalmOvercast
5:55 PM53.6 °F42.8 °F67 %29.71 in10.0 miSW (230°)11.5 mph17.3 mphOvercast
6:15 PM53.6 °F42.8 °F67 %29.72 in10.0 miWSW (240°)10.4 mphOvercast
6:35 PM53.6 °F42.8 °F67 %29.73 in10.0 miWSW (250°)6.9 mph10.4 mphOvercast
6:55 PM53.6 °F42.8 °F67 %29.74 in10.0 miWSW (240°)9.2 mphOvercast
7:15 PM53.6 °F41.0 °F62 %29.76 in10.0 miWNW (290°)12.7 mph21.9 mphOvercast
7:35 PM51.8 °F41.0 °F67 %29.77 in10.0 miWNW (290°)15.0 mph23.0 mphOvercast
7:55 PM51.8 °F41.0 °F67 %29.79 in10.0 miWNW (290°)12.7 mph17.3 mphOvercast
8:15 PM50.0 °F41.0 °F71 %29.81 in10.0 miWest (280°)9.2 mph18.4 mphOvercast
8:35 PM50.0 °F41.0 °F71 %29.83 in10.0 miCalmOvercast
8:55 PM50.0 °F41.0 °F71 %29.83 in10.0 miCalmOvercast
9:15 PM50.0 °F41.0 °F71 %29.84 in10.0 miCalmOvercast
9:35 PM50.0 °F41.0 °F71 %29.85 in10.0 miCalmOvercast
9:55 PM50.0 °F41.0 °F71 %29.85 in10.0 miWest (280°)9.2 mphOvercast
10:15 PM48.2 °F41.0 °F76 %29.85 in10.0 miWNW (290°)11.5 mphOvercast
10:35 PM46.4 °F41.0 °F81 %29.86 in10.0 miWest (260°)6.9 mphOvercast
10:55 PM46.4 °F41.0 °F81 %29.86 in10.0 miCalmOvercast
11:15 PM46.4 °F41.0 °F81 %29.86 in10.0 miCalmOvercast
11:35 PM46.4 °F41.0 °F81 %29.86 in10.0 miWest (280°)11.5 mphRainLight Rain
11:55 PM46.4 °F41.0 °F81 %29.86 in10.0 miCalmOvercast
Hourly data recorded from KMDQ, located miles away from Fayetteville, Tennessee







STORIES FROM OUR PARTNERS